Change the Weather History Date:

Thursday, October 27, 2011

  Actual Average Record
Temperature  
Mean Temperature 58 °F -  
Max Temperature 67 °F 67 °F 91 °F (2005)
Min Temperature 48 °F 47 °F 48 °F (1996)
Degree Days  
Heating Degree Days 8    
Growing Degree Days 8 (Base 50)    
Moisture  
Dew Point 53 °F    
Average Humidity 75    
Maximum Humidity 94    
Minimum Humidity 45    
Precipitation  
Precipitation 0.08 in 0.05 in - ()
Sea Level Pressure  
Sea Level Pressure 29.93 in    
Wind  
Wind Speed 8 mph ()    
Max Wind Speed 18 mph    
Max Gust Speed -    
Visibility 6.4 miles    
Events Rain    
Averages and records for this station are not official NWS values.
T = Trace of Precipitation, MM = Missing Value Source: Averaged Metar Reports

Daily Weather History Graph

Daily Weather History Graph

Search for Another Location

Airport or City:

Trip Planner

Search our weather history database for the weather conditions in past years. The results will help you decide how hot, cold, wet, or windy it might be!

Date:

Astronomy

Oct. 27, 2011 Rise Set
Actual Time 6:23 AM WET 5:19 PM WET
Civil Twilight 5:57 AM WET 5:45 PM WET
Nautical Twilight 5:27 AM WET 6:14 PM WET
Astronomical Twilight 4:58 AM WET 6:44 PM WET
Moon 7:03 AM WET (10/27) 5:41 PM WET (10/27)
Length of Visible Light 11h 47m
Length of Day
10h 56m
New Moon, 1% of the Moon is Illuminated
Oct 27
New Moon
Nov 2
First Quarter
Nov 10
Full
Nov 18
Last Quarter
Nov 25
New

Hourly Weather History & Observations

Time (WET) Temp. Dew Point Humidity Pressure Visibility Wind Dir Wind Speed Gust Speed Precip Events Conditions
12:00 AM 59 °F 51 °F 66% 29.90 in 6 mi SW 5.8 mph - -   Scattered Clouds
12:00 AM 59.0 °F 50.0 °F 72% 29.92 in 6.2 mi SW 4.6 mph - N/A   Scattered Clouds
1:00 AM 59.0 °F 50.0 °F 72% 29.89 in 6.2 mi SSE 4.6 mph - N/A   Scattered Clouds
2:00 AM 59.0 °F 50.0 °F 72% 29.89 in 6.2 mi South 5.8 mph - N/A   Scattered Clouds
3:00 AM 59 °F 50 °F 63% 29.86 in 6 mi South 5.8 mph - -   Scattered Clouds
3:00 AM 59.0 °F 50.0 °F 72% 29.89 in 6.2 mi South 5.8 mph - N/A   Scattered Clouds
5:00 AM 60.8 °F 50.0 °F 68% 29.83 in 6.2 mi WSW 10.4 mph - N/A   Scattered Clouds
6:00 AM 60 °F 50 °F 62% 29.83 in 12 mi SW 9.2 mph - -   Scattered Clouds
6:00 AM 60.8 °F 50.0 °F 68% 29.86 in 6.2 mi SW 9.2 mph - N/A   Scattered Clouds
8:00 AM 66.2 °F 51.8 °F 60% 29.89 in 6.2 mi SW 9.2 mph - N/A   Scattered Clouds
9:00 AM 68 °F 51 °F 45% 29.87 in 12 mi SW 11.5 mph - -   Scattered Clouds
9:00 AM 68.0 °F 51.8 °F 56% 29.92 in 6.2 mi SW 11.5 mph - N/A   Scattered Clouds
10:00 AM 66.2 °F 55.4 °F 68% 29.98 in 6.2 mi NNW 9.2 mph - N/A   Mostly Cloudy
11:00 AM 62.6 °F 57.2 °F 82% 29.95 in 6.2 mi WSW 10.4 mph - N/A Rain Light Rain
12:00 PM 62.6 °F 59.0 °F 88% 29.92 in 6.2 mi SW 11.5 mph - N/A Rain Light Rain
1:00 PM 62.6 °F 57.2 °F 82% 29.95 in 6.2 mi WSW 18.4 mph - N/A   Mostly Cloudy
2:00 PM 60.8 °F 55.4 °F 82% 29.95 in 6.2 mi West 6.9 mph - N/A   Mostly Cloudy
3:00 PM 62.6 °F 55.4 °F 77% 29.92 in 6.2 mi WSW 10.4 mph - N/A   Mostly Cloudy
5:00 PM 59.0 °F 57.2 °F 94% 29.95 in 6.2 mi Variable 2.3 mph - N/A   Mostly Cloudy
6:00 PM 59 °F 56 °F 88% 29.96 in 6 mi SSW 8.1 mph - -   Overcast
6:00 PM 59.0 °F 57.2 °F 94% 29.98 in 6.2 mi SSW 8.1 mph - N/A   Mostly Cloudy
7:00 PM 59.0 °F 55.4 °F 88% 29.98 in 5.0 mi West 4.6 mph - N/A   Mostly Cloudy
8:00 PM 59.0 °F 53.6 °F 82% 29.98 in 5.0 mi WSW 10.4 mph - N/A   Scattered Clouds
9:00 PM 59 °F 53 °F 75% 29.97 in 5 mi WSW 18.4 mph - -   Mostly Cloudy
9:00 PM 59.0 °F 53.6 °F 82% 29.98 in 5.0 mi WSW 18.4 mph - N/A   Scattered Clouds
10:00 PM 57.2 °F 51.8 °F 82% 30.01 in 6.2 mi WSW 13.8 mph - N/A   Scattered Clouds
11:00 PM 57.2 °F 53.6 °F 88% 30.01 in 6.2 mi WSW 13.8 mph - N/A   Scattered Clouds